Weather History for PHNG - May, 2014

Change the Weather History Date:

Friday, May 16, 2014

  Actual Average Record
Temperature  
Mean Temperature 76 °F -  
Max Temperature 84 °F 77 °F 84 °F (2008)
Min Temperature 69 °F 69 °F 68 °F (1997)
Cooling Degree Days 12    
Growing Degree Days 26 (Base 50)    
Moisture  
Dew Point 67 °F    
Average Humidity 79    
Maximum Humidity 89    
Minimum Humidity 49    
Precipitation  
Precipitation 0.00 in - - ()
Sea Level Pressure  
Sea Level Pressure 30.03 in    
Wind  
Wind Speed 5 mph (East)    
Max Wind Speed 10 mph    
Max Gust Speed -    
Visibility 7 miles    
Events Rain    
Averages and records for this station are not official NWS values.
T = Trace of Precipitation, MM = Missing Value Source: NWS Daily Summary

Daily Weather History Graph

Daily Weather History Graph

Search for Another Location

Airport or City:

Trip Planner

Search our weather history database for the weather conditions in past years. The results will help you decide how hot, cold, wet, or windy it might be!

Date:

Astronomy

May. 16, 2014 Rise Set
Actual Time 5:52 AM HST 7:02 PM HST
Civil Twilight 5:28 AM HST 7:26 PM HST
Nautical Twilight 4:59 AM HST 7:55 PM HST
Astronomical Twilight 4:30 AM HST 8:24 PM HST
Moon 9:20 PM HST (5/16) 7:45 AM HST (5/16)
Length of Visible Light 13h 58m
Length of Day
13h 10m
Waning Gibbous, 94% of the Moon is Illuminated
May 16
Waning Gibbous
May 21
Last Quarter
May 28
New
Jun 5
First Quarter
Jun 12
Full

Hourly Weather History & Observations

Time (HST) Temp. Heat Index Dew Point Humidity Pressure Visibility Wind Dir Wind Speed Gust Speed Precip Events Conditions
12:36 AM 75.2 °F - 68.0 °F 78% 30.04 in 6.2 mi ENE 6.9 mph - N/A   Overcast
12:57 AM 75.2 °F - 68.0 °F 78% 30.02 in 9.0 mi ENE 5.8 mph - N/A   Overcast
1:22 AM 73.4 °F - 68.0 °F 83% 30.03 in 6.2 mi SSE 4.6 mph - N/A   Overcast
1:49 AM 73.4 °F - 68.0 °F 83% 30.03 in 6.0 mi Calm Calm - N/A Rain Light Rain
1:57 AM 73.4 °F - 68.0 °F 83% 30.01 in 6.0 mi Calm Calm - N/A Rain Light Rain
2:32 AM 71.6 °F - 66.2 °F 83% 30.02 in 6.2 mi South 3.5 mph - N/A   Overcast
2:57 AM 71.6 °F - 66.0 °F 82% 30.01 in 7.0 mi Calm Calm - N/A   Overcast
3:55 AM 71.6 °F - 66.2 °F 83% 30.01 in 2.5 mi West 3.5 mph - N/A   Haze
3:57 AM 71.6 °F - 66.9 °F 85% 30.00 in 1.2 mi Calm Calm - N/A   Haze
3:59 AM - - - N/A% 30.01 in 0.8 mi SE 4.6 mph - N/A   Overcast
4:02 AM 71.6 °F - 66.2 °F 83% 30.02 in 6.2 mi Calm Calm - N/A   Overcast
4:57 AM 71.6 °F - 66.0 °F 82% 30.01 in 7.0 mi West 6.9 mph - N/A   Overcast
5:20 AM 71.6 °F - 66.2 °F 83% 30.03 in 6.2 mi WNW 6.9 mph - N/A   Overcast
5:45 AM 71.6 °F - 66.2 °F 83% 30.03 in 6.2 mi West 3.5 mph - N/A   Overcast
5:57 AM 71.6 °F - 66.9 °F 85% 30.02 in 10.0 mi Calm Calm - N/A   Overcast
6:57 AM 73.4 °F - 68.0 °F 83% 30.04 in 6.0 mi South 4.6 mph - N/A Rain Light Rain
7:08 AM 73.4 °F - 68.0 °F 83% 30.05 in 5.0 mi West 3.5 mph - N/A Rain Light Rain
7:17 AM 73.4 °F - 68.0 °F 83% 30.06 in 5.0 mi Calm Calm - N/A Rain Light Rain
7:46 AM 73.4 °F - 68.0 °F 83% 30.06 in 6.2 mi WSW 3.5 mph - N/A   Overcast
7:57 AM 73.4 °F - 68.0 °F 83% 30.05 in 8.0 mi SW 3.5 mph - N/A   Overcast
8:40 AM 73.4 °F - 69.8 °F 88% 30.07 in 6.2 mi Calm Calm - N/A   Overcast
8:57 AM 73.4 °F - 70.0 °F 89% 30.06 in 8.0 mi North 3.5 mph - N/A   Overcast
9:24 AM 73.4 °F - 69.8 °F 88% 30.08 in 6.2 mi Variable 5.8 mph - N/A   Overcast
9:57 AM 73.4 °F - 69.1 °F 86% 30.07 in 7.0 mi East 8.1 mph - N/A   Overcast
10:57 AM 73.4 °F - 69.1 °F 86% 30.06 in 8.0 mi ESE 9.2 mph - N/A   Scattered Clouds
11:57 AM 73.4 °F - 69.1 °F 86% 30.04 in 9.0 mi ESE 8.1 mph - N/A   Clear
12:57 PM 73.4 °F - 66.0 °F 78% 30.03 in 9.0 mi ESE 10.4 mph - N/A   Clear
1:57 PM 82.4 °F 84.1 °F 64.9 °F 55% 30.01 in 9.0 mi East 10.4 mph - N/A   Clear
2:57 PM 84.0 °F 85.4 °F 64.0 °F 51% 30.00 in 9.0 mi Variable 4.6 mph - N/A   Clear
3:57 PM 84.0 °F 84.9 °F 63.0 °F 49% 29.99 in 8.0 mi East 6.9 mph - N/A   Clear
4:57 PM 82.4 °F 83.5 °F 63.0 °F 52% 29.99 in 9.0 mi East 9.2 mph - N/A   Clear
5:57 PM 80.6 °F 82.2 °F 64.0 °F 57% 30.00 in 8.0 mi ENE 9.2 mph - N/A   Scattered Clouds
6:57 PM 75.2 °F - 64.0 °F 68% 30.01 in 7.0 mi East 8.1 mph - N/A   Scattered Clouds
7:57 PM 74.7 °F - 64.9 °F 72% 30.02 in 9.0 mi ENE 8.1 mph - N/A   Partly Cloudy
8:57 PM 73.4 °F - 64.9 °F 75% 30.03 in 9.0 mi East 5.8 mph - N/A   Scattered Clouds
9:57 PM 71.6 °F - 64.9 °F 79% 30.04 in 9.0 mi East 4.6 mph - N/A   Scattered Clouds
10:57 PM 69.8 °F - 64.9 °F 84% 30.04 in 9.0 mi ENE 6.9 mph - N/A   Mostly Cloudy
11:26 PM 69.8 °F - 66.2 °F 88% 30.05 in 6.2 mi East 6.9 mph - N/A   Overcast
11:57 PM 69.8 °F - 66.0 °F 88% 30.04 in 9.0 mi East 6.9 mph - N/A   Overcast